When you browse on this site, cookies collect data to enhance your experience and personalize the content and advertising you see.
Visit our Privacy Policy to learn more. By continuing to use the site, you agree to this use of cookies and data.
  • In Schweiz
  • Länderverzeichnis
  • Für 7 Tage
  • Wassertemperatur
  • Satellitenkarten
  • Wetterkarte
  • Widgets
  • user-avatar
    Anmelden

    Stündliche Wetter Filderstadt

    Heute, 18 Juli, Donnerstag

    Zeit Temperatur Niederschläge Wind Luftdruck Luftfeuchtigkeit
    00:00 +16°C° 0 mm 1 m/S 726 mmHg 73%
    01:00 +16°C° 0 mm 1 m/S 725 mmHg 74%
    02:00 +16°C° 0 mm 1 m/S 725 mmHg 74%
    03:00 +16°C° 0 mm 1 m/S 725 mmHg 74%
    04:00 +16°C° 0 mm 1 m/S 725 mmHg 75%
    05:00 +16°C° 0 mm 1 m/S 725 mmHg 73%
    06:00 +18°C° 0 mm 1 m/S 725 mmHg 72%
    07:00 +17°C° 0 mm 0 m/S 726 mmHg 71%
    08:00 +21°C° 0 mm 1 m/S 726 mmHg 65%
    09:00 +22°C° 0 mm 1 m/S 726 mmHg 60%
    10:00 +24°C° 0 mm 1 m/S 727 mmHg 55%
    11:00 +25°C° 0 mm 1 m/S 726 mmHg 51%
    12:00 +26°C° 0 mm 2 m/S 726 mmHg 47%
    13:00 +27°C° 0 mm 2 m/S 726 mmHg 43%
    14:00 +27°C° 0 mm 2 m/S 726 mmHg 44%
    15:00 +27°C° 0 mm 2 m/S 726 mmHg 45%
    16:00 +27°C° 0 mm 2 m/S 726 mmHg 45%
    17:00 +26°C° 0 mm 2 m/S 726 mmHg 50%
    18:00 +25°C° 0 mm 1 m/S 726 mmHg 55%
    19:00 +24°C° 0 mm 1 m/S 726 mmHg 61%
    20:00 +22°C° 0.1 mm 1 m/S 726 mmHg 65%
    21:00 +20°C° 0.1 mm 2 m/S 726 mmHg 69%
    22:00 +19°C° 0.1 mm 2 m/S 727 mmHg 73%
    23:00 +18°C° 0.2 mm 2 m/S 727 mmHg 76%

    Morgen, 19 Juli, Freitag

    Zeit Temperatur Niederschläge Wind Luftdruck Luftfeuchtigkeit
    00:00 +18°C° 0.2 mm 2 m/S 727 mmHg 79%
    01:00 +17°C° 0.2 mm 2 m/S 727 mmHg 82%
    02:00 +18°C° 0.1 mm 1 m/S 727 mmHg 83%
    03:00 +18°C° 0.1 mm 1 m/S 727 mmHg 84%
    04:00 +18°C° 0.1 mm 1 m/S 727 mmHg 85%
    05:00 +19°C° 0 mm 1 m/S 727 mmHg 83%
    06:00 +19°C° 0 mm 1 m/S 728 mmHg 82%
    07:00 +20°C° 0 mm 1 m/S 728 mmHg 81%
    08:00 +22°C° 0.1 mm 1 m/S 728 mmHg 74%
    09:00 +23°C° 0.1 mm 1 m/S 728 mmHg 67%
    10:00 +25°C° 0.1 mm 1 m/S 728 mmHg 59%
    11:00 +25°C° 0.2 mm 1 m/S 728 mmHg 59%
    12:00 +25°C° 0.2 mm 2 m/S 728 mmHg 58%
    13:00 +26°C° 0.2 mm 2 m/S 728 mmHg 57%
    14:00 +26°C° 0.3 mm 2 m/S 728 mmHg 59%
    15:00 +25°C° 0.3 mm 2 m/S 728 mmHg 62%
    16:00 +25°C° 0.3 mm 2 m/S 728 mmHg 64%
    17:00 +25°C° 0.1 mm 1 m/S 728 mmHg 67%
    18:00 +24°C° 0.1 mm 1 m/S 728 mmHg 70%
    19:00 +22°C° 0.1 mm 0 m/S 728 mmHg 73%
    20:00 +20°C° 0 mm 0 m/S 728 mmHg 75%
    21:00 +19°C° 0 mm 0 m/S 728 mmHg 78%
    22:00 +18°C° 0 mm 0 m/S 728 mmHg 81%
    23:00 +19°C° 0 mm 1 m/S 728 mmHg 82%

    übermorgen, 20 Juli, Samstag

    Zeit Temperatur Niederschläge Wind Luftdruck Luftfeuchtigkeit
    00:00 +19°C° 0 mm 1 m/S 728 mmHg 84%
    01:00 +18°C° 0 mm 1 m/S 728 mmHg 85%
    02:00 +18°C° 0 mm 1 m/S 728 mmHg 86%
    03:00 +18°C° 0 mm 1 m/S 728 mmHg 87%
    04:00 +18°C° 0 mm 1 m/S 727 mmHg 88%
    05:00 +19°C° 0 mm 1 m/S 727 mmHg 85%
    06:00 +20°C° 0 mm 1 m/S 727 mmHg 81%
    07:00 +21°C° 0 mm 1 m/S 728 mmHg 78%
    08:00 +23°C° 0 mm 2 m/S 728 mmHg 72%
    09:00 +25°C° 0 mm 2 m/S 728 mmHg 65%
    10:00 +27°C° 0 mm 2 m/S 728 mmHg 58%
    11:00 +28°C° 0.1 mm 2 m/S 728 mmHg 55%
    12:00 +29°C° 0.1 mm 2 m/S 728 mmHg 51%
    13:00 +30°C° 0.1 mm 3 m/S 728 mmHg 47%
    14:00 +30°C° 0 mm 3 m/S 728 mmHg 47%
    15:00 +30°C° 0 mm 3 m/S 728 mmHg 47%
    16:00 +30°C° 0 mm 3 m/S 728 mmHg 47%
    17:00 +29°C° 0 mm 3 m/S 728 mmHg 52%
    18:00 +28°C° 0 mm 3 m/S 728 mmHg 56%
    19:00 +27°C° 0 mm 2 m/S 728 mmHg 61%
    20:00 +25°C° 0.1 mm 2 m/S 729 mmHg 64%
    21:00 +24°C° 0.1 mm 2 m/S 729 mmHg 67%
    22:00 +21°C° 0.1 mm 2 m/S 729 mmHg 69%
    23:00 +20°C° 0.7 mm 2 m/S 729 mmHg 75%

    21 Juli, Sonntag

    Zeit Temperatur Niederschläge Wind Luftdruck Luftfeuchtigkeit
    00:00 +20°C° 0.7 mm 2 m/S 729 mmHg 80%
    01:00 +19°C° 0.7 mm 2 m/S 729 mmHg 85%
    02:00 +20°C° 0.6 mm 1 m/S 729 mmHg 86%
    03:00 +20°C° 0.6 mm 1 m/S 729 mmHg 87%
    04:00 +19°C° 0.6 mm 1 m/S 730 mmHg 89%
    05:00 +20°C° 0.4 mm 1 m/S 730 mmHg 88%
    06:00 +21°C° 0.4 mm 1 m/S 730 mmHg 87%
    07:00 +22°C° 0.4 mm 1 m/S 731 mmHg 86%
    08:00 +23°C° 0.2 mm 2 m/S 731 mmHg 80%
    09:00 +24°C° 0.2 mm 2 m/S 732 mmHg 74%
    10:00 +26°C° 0.2 mm 2 m/S 732 mmHg 68%
    11:00 +27°C° 0.4 mm 2 m/S 732 mmHg 65%
    12:00 +27°C° 0.4 mm 2 m/S 732 mmHg 62%
    13:00 +28°C° 0.4 mm 3 m/S 732 mmHg 59%
    14:00 +28°C° 0.2 mm 2 m/S 732 mmHg 58%
    15:00 +28°C° 0.2 mm 2 m/S 732 mmHg 57%
    16:00 +28°C° 0.2 mm 2 m/S 732 mmHg 56%
    17:00 +28°C° 0 mm 2 m/S 732 mmHg 59%
    18:00 +27°C° 0 mm 1 m/S 733 mmHg 63%
    19:00 +26°C° 0 mm 1 m/S 733 mmHg 66%
    20:00 +24°C° 0 mm 1 m/S 733 mmHg 69%
    21:00 +23°C° 0 mm 1 m/S 733 mmHg 72%
    22:00 +21°C° 0 mm 1 m/S 733 mmHg 75%
    23:00 +20°C° 0 mm 1 m/S 733 mmHg 77%

    22 Juli, Montag

    Zeit Temperatur Niederschläge Wind Luftdruck Luftfeuchtigkeit
    00:00 +20°C° 0 mm 1 m/S 733 mmHg 79%
    01:00 +18°C° 0 mm 0 m/S 733 mmHg 81%
    02:00 +17°C° 0 mm 0 m/S 733 mmHg 83%
    03:00 +17°C° 0 mm 0 m/S 733 mmHg 84%
    04:00 +17°C° 0 mm 0 m/S 732 mmHg 85%
    05:00 +18°C° 0 mm 0 m/S 733 mmHg 83%
    06:00 +21°C° 0 mm 1 m/S 733 mmHg 80%
    07:00 +22°C° 0 mm 1 m/S 733 mmHg 78%
    08:00 +24°C° 0 mm 1 m/S 733 mmHg 73%
    09:00 +26°C° 0 mm 1 m/S 733 mmHg 67%
    10:00 +28°C° 0 mm 1 m/S 733 mmHg 62%
    11:00 +29°C° 0 mm 1 m/S 733 mmHg 58%
    12:00 +30°C° 0 mm 1 m/S 733 mmHg 53%
    13:00 +31°C° 0 mm 1 m/S 733 mmHg 49%
    14:00 +31°C° 0 mm 1 m/S 732 mmHg 49%
    15:00 +31°C° 0 mm 1 m/S 732 mmHg 49%
    16:00 +32°C° 0 mm 1 m/S 732 mmHg 48%
    17:00 +30°C° 0 mm 2 m/S 732 mmHg 55%
    18:00 +29°C° 0 mm 2 m/S 732 mmHg 62%
    19:00 +28°C° 0 mm 2 m/S 731 mmHg 69%
    20:00 +26°C° 0 mm 2 m/S 732 mmHg 73%
    21:00 +25°C° 0 mm 2 m/S 732 mmHg 77%
    22:00 +23°C° 0 mm 1 m/S 732 mmHg 81%
    23:00 +22°C° 0 mm 1 m/S 732 mmHg 81%

    23 Juli, Dienstag

    Zeit Temperatur Niederschläge Wind Luftdruck Luftfeuchtigkeit
    00:00 +22°C° 0 mm 1 m/S 731 mmHg 82%
    01:00 +21°C° 0 mm 1 m/S 731 mmHg 82%
    02:00 +21°C° 0 mm 1 m/S 731 mmHg 83%
    03:00 +21°C° 0 mm 1 m/S 731 mmHg 83%
    04:00 +20°C° 0 mm 1 m/S 731 mmHg 84%
    05:00 +21°C° 0 mm 1 m/S 731 mmHg 81%
    06:00 +22°C° 0 mm 1 m/S 731 mmHg 79%
    07:00 +23°C° 0 mm 1 m/S 731 mmHg 76%
    08:00 +25°C° 0 mm 1 m/S 731 mmHg 70%
    09:00 +27°C° 0 mm 2 m/S 731 mmHg 64%
    10:00 +29°C° 0 mm 2 m/S 731 mmHg 57%
    11:00 +29°C° 0 mm 2 m/S 730 mmHg 55%
    12:00 +30°C° 0 mm 3 m/S 730 mmHg 52%
    13:00 +31°C° 0 mm 3 m/S 730 mmHg 50%
    14:00 +31°C° 0 mm 3 m/S 730 mmHg 51%
    15:00 +31°C° 0 mm 3 m/S 729 mmHg 51%
    16:00 +31°C° 0 mm 3 m/S 729 mmHg 52%
    17:00 +30°C° 0 mm 3 m/S 729 mmHg 57%
    18:00 +29°C° 0 mm 3 m/S 729 mmHg 62%
    19:00 +27°C° 0 mm 3 m/S 729 mmHg 68%
    20:00 +26°C° 0 mm 2 m/S 729 mmHg 70%
    21:00 +24°C° 0 mm 2 m/S 729 mmHg 73%
    22:00 +23°C° 0 mm 2 m/S 729 mmHg 75%
    23:00 +22°C° 0 mm 1 m/S 729 mmHg 77%
    Mehr zeigen